Location: Gouy
(50.0008°N, 3.2556°E)
Time: 11:44:34
(UTC+00:00)

SL-16 R/B - Pass Details

Date: 23 May 2024
Orbit: 985 x 1007 km, 99.7° (Epoch: 14 June)

Event Time Altitude Azimuth Distance (km) Brightness Sun altitude
Rises 01:48:21 0° 150° (SSE) 3,722 5.2 -14.2°
Reaches altitude 10° 01:50:50 10° 148° (SSE) 2,777 4.6 -14.0°
Maximum altitude 01:57:00 66° 68° (ENE) 1,098 3.0 -13.4°
Drops below altitude 10° 02:03:13 10° 348° (NNW) 2,794 5.6 -12.9°
Sets 02:05:43 0° 346° (NNW) 3,746 6.2 -12.7°
